| time (UTC) | temp F | wind direction | speed knots | gust knots | rain 1hr in | rain 24hr in | rain mn in | humidity % | barometer mb |
| 20260906001712 | 45 | 240 | 4.3 | 0.0 | 0.00 | 0.00 | 0.00 | 87 | |
| 20260905231712 | 48 | 250 | 6.1 | 0.0 | 0.00 | 0.00 | 0.00 | 76 | |
| 20260905222114 | 50 | 260 | 6.1 | 0.0 | 0.00 | 0.00 | 0.00 | 71 | |
| 20260905211711 | 52 | 260 | 4.3 | 0.0 | 0.00 | 0.00 | 0.00 | 71 | |
| 20260905201713 | 54 | 260 | 6.1 | 0.0 | 0.00 | 0.00 | 0.00 | 71 | |
| 20260905192024 | 55 | 260 | 7.8 | 0.0 | 0.00 | 0.00 | 0.00 | 66 | |
| 20260905181712 | 55 | 260 | 7.8 | 19.1 | 0.00 | 0.00 | 0.00 | 71 | |
| 20260905171712 | 57 | 260 | 10.4 | 20.9 | 0.00 | 0.00 | 0.00 | 67 | |
| 20260905162116 | 59 | 250 | 10.4 | 19.1 | 0.00 | 0.00 | 0.00 | 67 | |
| 20260905151637 | 61 | 240 | 12.2 | 22.6 | 0.00 | 0.00 | 0.00 | 63 | |
| 20260905141637 | 59 | 240 | 15.6 | 26.9 | 0.00 | 0.00 | 0.00 | 72 | |
| 20260905131912 | 59 | 250 | 10.4 | 22.6 | 0.00 | 0.00 | 0.00 | 67 | |
| 20260905121838 | 57 | 260 | 10.4 | 20.9 | 0.00 | 0.00 | 0.00 | 76 | |
| 20260905111714 | 55 | 250 | 12.2 | 20.9 | 0.00 | 0.00 | 0.00 | 82 | |
| 20260905102131 | 54 | 250 | 10.4 | 19.1 | 0.00 | 0.00 | 0.00 | 81 | |
| 20260905091738 | 54 | 240 | 12.2 | 0.0 | 0.00 | 0.00 | 0.00 | 87 | |
| 20260905081714 | 54 | 250 | 7.8 | 0.0 | 0.00 | 0.00 | 0.00 | 87 | |
| 20260905072025 | 50 | 250 | 10.4 | 0.0 | 0.00 | 0.00 | 0.00 | 93 | |
| 20260905061715 | 48 | 240 | 7.8 | 0.0 | 0.00 | 0.00 | 0.00 | 93 | |
| 20260905051714 | 46 | 250 | 7.8 | 0.0 | 0.00 | 0.00 | 0.00 | 99 | |
| 20260905042115 | 48 | 290 | 7.8 | 19.1 | 0.00 | 0.00 | 0.00 | 81 | |
| 20260905031714 | 54 | 280 | 4.3 | 0.0 | 0.00 | 0.00 | 0.00 | 87 | |
| 20260905021714 | 57 | 0 | 4.3 | 0.0 | 0.00 | 0.00 | 0.00 | 82 | |
| 20260905012024 | 59 | 280 | 6.1 | 15.6 | 0.00 | 0.00 | 0.00 | 82 |